Weather History for KMER - December, 2013

Change the Weather History Date:

Saturday, December 7, 2013

  Actual Average (KMCE) Record (KMCE)
Temperature  
Mean Temperature 40 °F 46 °F  
Max Temperature 50 °F 55 °F 65 °F (2006)
Min Temperature 30 °F 36 °F 29 °F (2009)
Degree Days  
Heating Degree Days 25    
Month to date heating degree days  
Since 1 July heating degree days  
Cooling Degree Days 0    
Month to date cooling degree days  
Year to date cooling degree days  
Moisture  
Dew Point 34 °F    
Average Humidity 89    
Maximum Humidity 100    
Minimum Humidity 40    
Precipitation  
Precipitation 0.21 in 0.03 in 0.65 in (2004)
Month to date precipitation 0.21  
Year to date precipitation 11.19  
Since 1 July precipitation 2.51  
Snow  
Snow 0.00 in - - ()
Month to date snowfall  
Since 1 July snowfall  
Snow Depth -    
Sea Level Pressure  
Sea Level Pressure 30.08 in    
Wind  
Wind Speed 12 mph (SE)    
Max Wind Speed 23 mph    
Max Gust Speed 29 mph    
Visibility 8 miles    
Events      
T = Trace of Precipitation, MM = Missing Value Source: NWS Daily Summary

Daily Weather History Graph

Daily Weather History Graph

Search for Another Location

Airport or City:

Trip Planner

Search our weather history database for the weather conditions in past years. The results will help you decide how hot, cold, wet, or windy it might be!

Date:

Astronomy

Dec. 07, 2013 Rise Set
Actual Time 7:03 AM PST 4:44 PM PST
Civil Twilight 6:34 AM PST 5:13 PM PST
Nautical Twilight 6:01 AM PST 5:45 PM PST
Astronomical Twilight 5:30 AM PST 6:17 PM PST
Moon 10:56 AM PST (12/7) 10:26 PM PST (12/7)
Length of Visible Light 10h 38m
Length of Day
9h 40m
Waxing Crescent, 30% of the Moon is Illuminated
Dec 7
Waxing Crescent
Dec 9
First Quarter
Dec 17
Full
Dec 25
Last Quarter
Jan 1
New

Hourly Weather History & Observations

Time (PST) Temp. Windchill Dew Point Humidity Pressure Visibility Wind Dir Wind Speed Gust Speed Precip Events Conditions
12:15 AM 42.8 °F 34.5 °F 30.2 °F 61% 29.98 in 10.0 mi South 18.4 mph 27.6 mph N/A   Overcast
12:35 AM 41.0 °F 31.6 °F 32.0 °F 70% 29.96 in 5.0 mi SSE 20.7 mph 27.6 mph 0.01 in   Overcast
12:55 AM 39.2 °F 30.2 °F 35.6 °F 87% 29.95 in 5.0 mi SSE 17.3 mph 23.0 mph 0.01 in   Overcast
1:15 AM 39.2 °F 30.5 °F 35.6 °F 87% 29.95 in 4.0 mi SSE 16.1 mph 21.9 mph 0.01 in   Overcast
1:35 AM 39.2 °F 30.2 °F 37.4 °F 93% 29.96 in 3.0 mi SSE 17.3 mph 24.2 mph 0.04 in   Mostly Cloudy
1:55 AM 39.2 °F 30.2 °F 37.4 °F 93% 29.97 in 4.0 mi SSE 17.3 mph 25.3 mph 0.09 in   Mostly Cloudy
2:15 AM 37.4 °F 26.4 °F 37.4 °F 100% 29.97 in 3.0 mi SSE 23.0 mph 28.8 mph 0.04 in   Overcast
2:35 AM 37.4 °F 27.2 °F 37.4 °F 100% 29.96 in 4.0 mi SSE 19.6 mph 27.6 mph 0.08 in   Overcast
2:55 AM 37.4 °F 28.5 °F 37.4 °F 100% 29.97 in 6.0 mi SSE 15.0 mph 27.6 mph 0.09 in   Overcast
3:15 AM 37.4 °F 26.9 °F 37.4 °F 100% 29.97 in 4.0 mi SSE 20.7 mph - 0.01 in   Overcast
3:35 AM 37.4 °F 26.4 °F 37.4 °F 100% 29.97 in 5.0 mi SSE 23.0 mph 27.6 mph 0.02 in   Overcast
3:55 AM 37.4 °F 26.9 °F 37.4 °F 100% 29.97 in 7.0 mi SSE 20.7 mph 26.5 mph 0.02 in   Mostly Cloudy
4:15 AM 37.4 °F 28.2 °F 37.4 °F 100% 29.97 in 7.0 mi SE 16.1 mph 21.9 mph N/A   Mostly Cloudy
4:35 AM 37.4 °F 29.3 °F 37.4 °F 100% 29.98 in 7.0 mi SSE 12.7 mph - N/A   Mostly Cloudy
4:55 AM 37.4 °F 28.9 °F 37.4 °F 100% 29.98 in 7.0 mi SSE 13.8 mph - N/A   Overcast
5:15 AM 37.4 °F 29.8 °F 37.4 °F 100% 29.99 in 8.0 mi SSE 11.5 mph - N/A   Mostly Cloudy
5:35 AM 35.6 °F 29.2 °F 35.6 °F 100% 30.00 in 9.0 mi South 8.1 mph - N/A   Scattered Clouds
5:55 AM 35.6 °F 28.6 °F 35.6 °F 100% 30.00 in 8.0 mi SSE 9.2 mph - N/A   Mostly Cloudy
6:55 AM 35.6 °F 29.9 °F 35.6 °F 100% 30.03 in 7.0 mi South 6.9 mph - N/A   Mostly Cloudy
7:45 AM 35.6 °F 32.8 °F 35.6 °F 100% 30.05 in 4.0 mi Variable 3.5 mph - N/A   Haze
8:45 AM 37.4 °F 34.9 °F 37.4 °F 100% 30.08 in 4.0 mi Variable 3.5 mph - N/A   Haze
9:45 AM 42.8 °F 41.1 °F 42.8 °F 100% 30.11 in 4.0 mi Variable 3.5 mph - N/A   Haze
10:45 AM 46.4 °F 45.2 °F 39.2 °F 76% 30.11 in 5.0 mi Variable 3.5 mph - N/A   Haze
11:45 AM 50.0 °F - 30.2 °F 47% 30.09 in 10.0 mi North - - N/A   Mostly Cloudy
12:45 PM 46.4 °F 42.4 °F 26.6 °F 46% 30.09 in 10.0 mi WNW 8.1 mph - N/A   Mostly Cloudy
1:45 PM 46.4 °F 41.9 °F 26.6 °F 46% 30.09 in 10.0 mi NW 9.2 mph - N/A   Mostly Cloudy
2:45 PM 50.0 °F - 26.6 °F 40% 30.10 in 10.0 mi NNW 11.5 mph - N/A   Scattered Clouds
3:45 PM 48.2 °F - 28.4 °F 46% 30.12 in 10.0 mi North 8.1 mph - N/A   Scattered Clouds
4:45 PM 42.8 °F 39.3 °F 28.4 °F 57% 30.16 in 10.0 mi North 5.8 mph - N/A   Scattered Clouds
5:45 PM 39.2 °F 35.0 °F 32.0 °F 75% 30.17 in 10.0 mi NNE 5.8 mph - N/A   Scattered Clouds
6:45 PM 35.6 °F 29.9 °F 32.0 °F 87% 30.18 in 10.0 mi North 6.9 mph - N/A   Scattered Clouds
7:50 PM 33.8 °F - 32.0 °F 93% 30.18 in 10.0 mi Calm Calm - N/A   Partly Cloudy
8:15 PM 33.8 °F 30.8 °F 33.8 °F 100% 30.17 in 10.0 mi East 3.5 mph - N/A   Clear
8:35 PM 32.0 °F 28.7 °F 32.0 °F 100% 30.18 in 10.0 mi ENE 3.5 mph - N/A   Clear
8:45 PM 32.0 °F - 32.0 °F 100% 30.19 in 10.0 mi Calm Calm - N/A   Clear
8:55 PM 33.8 °F - 33.8 °F 100% 30.20 in 10.0 mi Calm Calm - N/A   Clear
9:15 PM 35.6 °F - 33.8 °F 93% 30.20 in 10.0 mi Calm Calm - N/A   Clear
9:35 PM 32.0 °F - 32.0 °F 100% 30.20 in 10.0 mi Calm Calm - N/A   Clear
9:55 PM 32.0 °F - 32.0 °F 100% 30.20 in 10.0 mi Calm Calm - N/A   Clear
10:15 PM 32.0 °F - 32.0 °F 100% 30.20 in 10.0 mi Calm Calm - N/A   Clear
10:35 PM 30.2 °F - 30.2 °F 100% 30.21 in 10.0 mi Calm Calm - N/A   Clear
10:55 PM 30.2 °F - 30.2 °F 100% 30.21 in 10.0 mi Calm Calm - N/A   Clear
11:15 PM 30.2 °F - 30.2 °F 100% 30.21 in 10.0 mi Calm Calm - N/A   Clear
11:35 PM 30.2 °F - 30.2 °F 100% 30.22 in 10.0 mi Calm Calm - N/A   Clear
11:55 PM 30.2 °F - 30.2 °F 100% 30.22 in 10.0 mi Calm Calm - N/A   Clear